Location: Babice
(50.3480°N, 22.9363°E)
Time: 01:30:51
(UTC+00:00)

Daily predictions for brighter satellites

Satellite Brightness Start Highest point End
(mag) Time Altitude Azimuth Time Altitude Azimuth Time Altitude Azimuth
Abrixas rocket 1.8 00:03:47 40° WSW 00:04:29 55° S 00:07:19 10° ESE
Cosmos 2242 Rocket 4.3 00:04:58 10° NNW 00:09:15 41° W 00:11:25 25° SW
SL-8 R/B 4.1 00:08:39 25° SW 00:11:04 44° SSE 00:15:39 10° E
Cosmos 2016 Rocket 4.1 00:09:03 18° S 00:13:43 73° E 00:19:57 10° NNE
IRAS Rocket 4.4 00:11:57 21° S 00:15:33 54° WSW 00:20:58 10° NNW
Lacrosse 5 2.4 00:10:53 10° WSW 00:15:56 60° NNW 00:20:59 10° ENE
SL-16 R/B 2.5 00:11:55 16° S 00:17:05 72° WSW 00:23:23 10° NNW
Okean 3 3.6 00:14:39 10° N 00:18:51 73° E 00:22:19 15° SSE
Cosmos 1602 4.4 00:17:36 24° SW 00:19:26 41° WNW 00:23:07 10° N
Meteor 1-4 Rocket 4.5 00:18:07 10° NW 00:20:32 17° W 00:21:27 15° WSW
Meteor 2-4 Rocket 3.8 00:15:35 10° NNW 00:21:33 77° W 00:26:30 15° S
Okean 1 4.4 00:18:59 10° NNW 00:22:30 30° W 00:24:06 22° SW
BREEZE-M DEB (TANK) 3.2 00:16:45 10° WSW 00:22:46 49° S 00:25:42 10° ESE
Cosmos 2278 4.2 00:18:33 10° NNW 00:24:16 63° ENE 00:29:55 10° SE
Meteor 1-14 Rocket 4.4 00:22:26 21° SSW 00:26:14 65° WNW 00:31:54 10° N
Meteor 1-11 Rocket 4.3 00:21:40 13° SSE 00:26:28 50° E 00:31:47 10° NNE
MOZ.5/SAFIR/RUBIN 5/SL-8 4.3 00:25:51 21° SSW 00:28:35 42° W 00:33:09 10° NNW
Cosmos 1190 Rocket 4.1 00:26:21 20° SSW 00:30:01 75° ESE 00:35:17 10° NNE
Cosmos 1869 Rocket 3.5 00:27:34 22° SSW 00:30:16 72° WNW 00:34:38 10° N
Helios 1B rocket 4.4 00:27:17 10° NNW 00:30:17 20° WNW 00:33:01 11° WSW
Cosmos 1536 3.9 00:27:10 13° SSE 00:30:31 41° E 00:34:21 10° NNE
Cosmos 1697 Rocket 2.6 00:27:20 10° NNW 00:32:59 79° WSW 00:38:36 10° SSE
Cosmos 921 Rocket 3.3 00:30:11 10° NNW 00:34:37 68° ENE 00:38:55 10° SSE
Cosmos 1437 Rocket 3.1 00:31:41 10° NNW 00:35:36 49° W 00:38:00 21° SSW
Cosmos 2221 Rocket 3.5 00:33:37 10° N 00:38:04 85° W 00:42:00 13° S
SeaSat 1 2.6 00:36:18 10° NE 00:41:14 70° ESE 00:45:02 17° SSW
NOSS 7 (D) 4.2 00:41:38 10° NW 00:44:20 44° SW 00:47:16 10° SSE
IRS-1D 3.7 00:39:42 10° NNE 00:44:40 65° ESE 00:49:01 13° S
CZ-2D R/B 2.3 00:39:34 10° N 00:44:53 68° WNW 00:49:08 17° SSW
CZ-4B R/B 3.5 00:40:02 10° NNE 00:45:08 80° ESE 00:49:15 15° SSW
Cosmos 2082 Rocket 2.9 00:40:40 13° S 00:45:28 48° ESE 00:50:57 10° NE
Aureole 1 Rocket 3.6 00:43:26 18° SSW 00:47:04 79° ESE 00:53:20 10° NNE
Cosmos 614 Rocket 4.4 00:43:22 17° SW 00:47:11 53° WNW 00:52:13 10° NNE
Cosmos 1763 Rocket 4.5 00:43:07 10° NNW 00:48:15 50° ENE 00:53:24 10° SE
Cosmos 1833 Rocket 2.7 00:44:54 17° SSW 00:49:19 80° ESE 00:54:58 10° NNE
COBE Rocket 4.0 00:45:25 10° SSE 00:50:26 83° ENE 00:55:21 10° NNW
Cosmos 1656 4.3 00:47:41 10° NW 00:52:31 33° WSW 00:56:32 14° SSW
COSMOS 2406 3.4 00:49:39 16° SW 00:54:19 71° WNW 01:00:06 10° NNE
Cosmos 405 Rocket 4.1 00:52:44 15° WSW 00:55:05 26° WNW 00:58:19 10° N
Cosmos 1140 Rocket 3.6 00:52:12 16° SSW 00:56:20 74° WNW 01:01:36 10° NNE
CBERS-1 4.1 00:52:46 10° NNE 00:57:57 82° ESE 01:02:41 12° SSW
Cosmos 2360 4.2 00:53:44 10° NW 00:59:26 67° WSW 01:05:07 10° SSE
Cosmos 468 Rocket 4.4 00:54:07 10° NNW 00:59:26 69° ENE 01:04:44 10° SSE
Cosmos 407 Rocket 3.9 00:55:13 15° SW 00:59:31 57° WNW 01:04:50 10° NNE
Cosmos 1500 4.0 00:58:26 17° SW 01:00:57 37° WNW 01:04:31 10° N
Cosmos 2233 Rocket 4.1 00:55:03 11° S 01:01:05 86° E 01:07:23 10° N
ERS-2 4.4 00:58:04 10° ESE 01:01:10 27° ENE 01:04:16 10° N
Meteor 1-28 Rocket 3.8 00:58:19 10° SSE 01:01:57 56° ENE 01:05:38 10° N
Cosmos 2322 Rocket 4.0 01:02:57 10° NNW 01:08:11 36° NE 01:13:23 10° ESE
Cosmos 192 4.4 01:04:11 10° NNW 01:09:01 59° WSW 01:13:49 10° S
Cosmos 1674 Rocket 3.5 01:05:17 10° N 01:09:40 87° W 01:13:59 10° S
Cosmos 1271 Rocket 4.5 01:06:34 10° N 01:10:03 32° ENE 01:13:27 10° SE
Cosmos 1066 Rocket 4.3 01:06:08 10° NNW 01:12:02 81° W 01:17:53 10° S
Cosmos 1666 2.9 01:13:11 14° SSW 01:16:19 54° WNW 01:20:01 10° N
ARIANE 5 R/B 3.0 01:12:00 10° NNE 01:17:03 60° ESE 01:22:08 10° S
IRS-1C 4.3 01:11:43 10° NNE 01:17:05 77° ESE 01:22:25 10° SSW
Cosmos 676 Rocket 4.1 01:16:40 12° SSW 01:21:30 70° WNW 01:26:50 10° NNE
ADEOS II 2.1 01:17:55 10° NNE 01:23:12 75° WNW 01:28:26 10° SSW
NPP 4.4 01:18:51 10° N 01:23:52 40° WNW 01:28:50 10° SW
Cosmos 1818 3.6 01:18:37 10° NW 01:24:06 84° SW 01:29:33 10° SE
Resurs 1-4 Rocket 3.2 01:22:45 10° N 01:27:27 32° WNW 01:32:07 10° WSW
SL-08 R/B 3.4 01:24:20 10° S 01:29:03 63° WSW 01:33:53 10° NNW
Cosmos 1544 4.4 01:27:41 10° SSE 01:31:00 36° E 01:34:21 10° NNE
Cosmos 1743 2.9 01:28:17 10° S 01:32:04 73° E 01:35:55 10° NNE
Cosmos 1733 Rocket 3.4 01:29:34 10° SSW 01:33:43 49° WNW 01:37:57 10° N
ISS -3.5 01:30:30 10° W 01:33:46 47° SSW 01:36:59 10° SE
Cosmos 1908 Rocket 3.9 01:30:02 10° S 01:34:28 71° E 01:38:56 10° NNE
Landsat 5 4.0 01:34:12 10° SSE 01:38:01 58° ENE 01:41:49 10° N
Abrixas rocket 3.0 01:37:11 10° W 01:39:36 24° SSW 01:42:00 10° SSE
USA 215 4.2 01:33:28 10° E 01:39:48 52° N 01:46:08 10° WNW
Cosmos 2360 Rocket 4.1 01:35:11 10° NNW 01:40:25 36° NE 01:45:37 10° ESE
ATLAS 5 CENTAUR R/B 2.5 01:37:47 10° NW 01:43:17 52° SW 01:49:36 10° SSE
Gbstr 26 Del rocket 3.8 01:42:18 10° W 01:46:11 33° SSW 01:50:46 10° SSE
Cosmos 1242 Rocket 2.6 01:43:22 10° NNW 01:46:46 52° W 01:50:08 10° S
Cosmos 1980 Rocket 2.7 01:43:19 10° NW 01:48:37 40° WSW 01:53:52 10° S
Aureole 2 4.1 01:47:19 10° SSW 01:50:16 81° ESE 01:53:16 10° NNE
Intercosmos 25 Rocket 4.2 01:48:13 10° N 01:51:57 67° E 01:57:34 10° SSE
SL-8 R/B 3.7 01:48:33 10° W 01:53:20 72° S 01:58:08 10° E
